Résultats

LA ROUTE DE L ETOILE
LA ROUTE DE L ETOILE. Édition 2019.

85.5 Km
10/02/2019 à 09:00:00 - ALES (30)
192 arrivant(e)s.





Place▲ Temps Dossard Nom Prenom Categ #Categ Sexe #Sexe Club Vit Moy Diplôme Partager
1 02:10:07 204 ALLUE JULIEN C 1 M 1 AC CLAPIERS 39,43
2 02:10:12 368 RICCI-POGGI MARTIAL D 1 M 2 39,40
3 02:10:13 202 ALBARET DAMIEN D 2 M 3 TEAM MONTAGNAC AC 39,40
4 02:10:14 373 ROUAT GEOFFREY C 2 M 4 TEAM MONTAGNAC AC 39,39
5 02:10:14 234 BRESSOLIS LAURENT E 1 M 5 VC MAURS 39,39
6 02:10:16 416 CHEVAILLIER JEREMIE C 3 M 6 39,38
7 02:10:26 258 DAGORNE FLORIAN D 3 M 7 TEAM MONTAGNAC AC 39,33
8 02:10:30 374 ROUQUETTE LOIC C 4 M 8 TEAM MONTAGNAC AC 39,31
9 02:10:36 383 SERRES LORENZO C 5 M 9 EC ANDUZE 39,28
10 02:10:41 400 VAILHE CLEMENT C 6 M 10 NIMES CYCLISME 39,26
11 02:10:41 315 KANEL FLORIAN C 7 M 11 NIMES CYCLISME 39,26
12 02:11:19 228 BOZZETTO PATRICE E 2 M 12 SJVC MONTELIMAR 39,07
13 02:11:19 407 VIALAT GEOFFREY D 4 M 13 VELO CLUB SALINDRES ST PRIVAT 39,07
14 02:11:19 355 PILLET EMMANUEL E 3 M 14 39,07
15 02:11:19 338 MERLE JULIEN C 8 M 15 VC SALINDRES 39,07
16 02:11:20 257 CZARNEKI LOIC D 5 M 16 39,06
17 02:11:20 269 DONADILLE FREDERIC C 9 M 17 AC ROGNONAS 39,06
18 02:11:20 270 DONATI FRANCK E 4 M 18 VC RAMBERTOIS 39,06
19 02:11:21 347 NOGUERA CAMILLE C 10 M 19 BMC BEZIERS 39,06
20 02:11:21 285 FOULONGNE JULES C 11 M 20 LA NUIT NOIRE CYCLING CLUB 39,06
21 02:11:23 413 DENA BRUNO D 6 M 21 39,05
22 02:11:23 327 LE-LUE KEVIN C 12 M 22 UC MONTMEYRAN VALENCE 39,05
23 02:11:23 221 BLANC VINCENT C 13 M 23 TEYRAN BIKE 34 39,05
24 02:11:24 216 BECARUD THOMAS C 14 M 24 TREK-VELO 101 39,04
25 02:11:24 382 SERES LIONEL D 7 M 25 MASSALIA CYCLISME 39,04
26 02:11:24 301 GRAPPIN MARC-ANTOINE C 15 M 26 LNN.CC 39,04
27 02:11:25 308 HILAIRE RAPHAEL D 8 M 27 39,04
28 02:11:25 240 CANTONI VINCENT D 9 M 28 TEAM MONTAGNAC AC 39,04
29 02:11:26 357 PONS LAURENT E 5 M 29 VELO CLUB DE MAUGUIO 39,03
30 02:11:26 391 THEODET WILLIAM C 16 M 30 UCSV LA SPORT CONSEIL 39,03
31 02:11:28 372 ROUANET XAVIER D 10 M 31 ALBI VELO SPORT 39,02
32 02:11:32 330 LORTHIOIR PAUL-EMILE C 17 M 32 TREK-VELO 101 39,00
33 02:11:32 236 BRUTTOMESSO DANIEL F 1 M 33 VC LA POMME MARSEILLE 39,00
34 02:11:34 211 AUDOUARD JIMMY C 18 M 34 VC PIERRELATTE 38,99
35 02:11:34 299 GLACIAL NICOLAS E 6 M 35 FIRSTEAM 64 38,99
36 02:11:34 256 CRETE BASTIEN C 19 M 36 VCA 38,99
37 02:11:35 276 FAVEREAU CYRIL D 11 M 37 U S PLAISANCE CYCLISME 38,99
38 02:11:39 381 SEGURA GUILLAUME D 12 M 38 RO SISTERON 38,97
39 02:11:47 286 FOULONNEAU PAUL C 20 M 39 38,93
40 02:11:47 292 GATHIER THIBAULT C 21 M 40 UCMV 38,93
41 02:11:49 282 FORINO MICKAEL C 22 M 41 TEAM BOUTICYCLE ALES 38,92
42 02:11:49 366 REBOUL YVES F 2 M 42 VC MIRAMAS 38,92
43 02:11:50 310 JAFFRE THOMAS C 23 M 43 MAT 38,91
44 02:11:50 247 CHANTON CHRISTOPHE D 13 M 44 USC-VAISON LA ROMAINE 38,91
45 02:11:50 375 ROUSSEAU CHRISTOPHE D 14 M 45 RO SISTERON 38,91
46 02:11:52 263 DE-MARANS FLORIAN C 24 M 46 TEAM MONTAGNAC AC 38,90
47 02:12:54 323 LAVAUZELLE FREDERIC D 15 M 47 MONDOVELO/ECB/LA NUIT NOIR CYCLING 38,60
48 02:13:48 412 ZUCCONI JEAN-MARIE E 7 M 48 VELO CLUB PORTO-VECCHIAIS 38,34
49 02:13:48 289 GARCIA PABLO C 25 M 49 NIMES CYCLISME 38,34
50 02:14:10 379 SAORIN ARNAUD C 26 M 50 UCSV LA SPORT CONSEIL 38,24
51 02:14:10 410 WEISS HUGO C 27 M 51 ESSOR CYCLISTE ANDUZIEN 38,24
52 02:14:20 212 AUJOULAT CYRIL D 16 M 52 VSGA 38,19
53 02:14:31 232 BREA-GONZALEZ GREGORY D 17 M 53 VC PIERRELATTE 38,14
54 02:14:32 209 AUBERY JEAN-FRANCOIS D 18 M 54 ES CAVAILLON 38,13
55 02:14:32 226 BOUQUIN MICHAEL E 8 M 55 ESSOR CYCLISTE ANDUZIEN 38,13
56 02:14:33 376 ROUSSEL THOMAS D 19 M 56 VCSSP 38,13
57 02:14:33 291 GARY HERVE E 9 M 57 NIMES CYCLISME 38,13
58 02:14:33 203 ALBARET GUILLAUME C 28 M 58 38,13
59 02:14:33 244 CAZASSUS BRUNO E 10 M 59 38,13
60 02:14:33 272 DUQUENNE BRUNO E 11 M 60 USC VAISON LA ROMAINE 38,13
61 02:14:34 284 FOUILLOUX SERGE E 12 M 61 ROC 38,12
62 02:14:35 279 FERNANDEZ SACHA C 29 M 62 AVC FABREGUES 38,12
63 02:14:35 316 KAUFMANN JASON C 30 M 63 TEYRAN BIKE 34 38,12
64 02:14:37 353 PERROUX DAVID E 13 M 64 VC DES ALPILLES 38,11
65 02:14:37 403 VALLENARI SEBASTIEN D 20 M 65 U S PLAISANCE CYCLISME 38,11
66 02:14:38 206 AMALOU AURELIEN D 21 M 66 TEAM MONTAGNAC AC 38,10
67 02:14:38 322 LAURENT REGIS E 14 M 67 CYCLO SPORT CAVAILLON 38,10
68 02:14:38 318 LAFFONT ERIC F 3 M 68 TEAM MONTAGNAC AC 38,10
69 02:14:40 371 ROCHEDY EMILIE A 1 F 1 TREK-VELO 101 38,09
70 02:14:41 387 SMITH LUDOVIC D 22 M 69 SAINT MATHIEU DE TREVIERS 38,09
71 02:14:41 288 GALLES JEAN-PAUL G 1 M 70 VC MONTOIS 38,09
72 02:14:42 277 FAVEREAU JEAN-JACQUES F 4 M 71 U S PLAISANCE CYCLISME 38,08
73 02:14:43 225 BOUDIGNON JEREMY C 31 M 72 SAINT CHELY CYCLISME 38,08
74 02:14:44 393 THOMAS SYLVAIN D 23 M 73 LA NUIT NOIRE CYCLING CLUB 38,08
75 02:14:54 360 PRADEILLES OLIVIER E 15 M 74 AC CLAPIERS 38,03
76 02:15:22 380 SEBILLE LEO C 32 M 75 CVC MONTFAVET 37,90
77 02:15:53 321 LARCO KEVIN C 33 M 76 UNION CYCLISTE ALBENASSIENNE 37,75
78 02:16:04 239 CAMPOS-HULL DANIEL C 34 M 77 LNN.CC 37,70
79 02:16:20 303 GRUZELLE YOACHIM C 35 M 78 37,63
80 02:17:59 396 TOLLERON YVES-ROBERT F 5 M 79 MONTPELLIER MAT 37,18
81 02:18:18 296 GERBAL BRUNO E 16 M 80 TMB ST AUNES 37,09
82 02:18:57 266 DIAZ JEAN-LUC F 6 M 81 ASPH MONTPELLIER 36,92
83 02:18:57 306 HANNOYE JEROME D 24 M 82 NIMES CYCLISME 36,92
84 02:18:58 331 LOTT HUGO C 36 M 83 VELO CLUB AUBAGNAIS 36,92
85 02:18:59 397 TROPET OLIVIER E 17 M 84 USC VAISON LA ROMAINE 36,91
86 02:19:20 207 AMENGUAL ROMAIN C 37 M 85 LA NUIT NOIRE CYCLING CLUB 36,82
87 02:19:23 369 RICHY MICHAEL D 25 M 86 USCV 36,80
88 02:19:29 237 BUATOIS GILLES F 7 M 87 UC PIERRELATTE 36,78
89 02:24:56 342 MORRA CAMILLE C 38 M 88 AC ROGNONAS 35,40
90 02:24:56 233 BRES NICOLAS C 39 M 89 TEAM ATC 26 DONZERE 35,40
91 02:25:58 359 POULENAS FABIEN C 40 M 90 AVC FABREGUES 35,15
92 02:27:41 401 VALIERGUES ERIC E 18 M 91 TEAM SPIRIT BIKE 34,74
93 02:27:42 267 DJILLALI WILLIAM E 19 M 92 VELO CLUB SALINDRES 34,73
94 02:27:42 283 FORMEAU CHRISTOPHE E 20 M 93 34,73
95 02:27:43 243 CARRE DAVID E 21 M 94 ASPH 34,73
96 02:27:44 392 THIRION FREDERIC E 22 M 95 SALON CYCLOSPORT 34,72
97 02:27:46 349 PAYAN OLIVIER D 26 M 96 TEAM RPM 34,72
98 02:27:47 252 COSTA CYRIL E 23 M 97 VELO CLUB SALINDRES 34,71
99 02:27:48 388 SOURBADERE JOEL E 24 M 98 U S PLAISANCE CYCLISME 34,71
100 02:27:49 363 QUAY STEPHANE E 25 M 99 CS CRAVEN 34,71